Starlink 2499

operational
NORAD ID: 48377 Int'l Des: 2021-038 Owner: SPXS Country: US Constellation: starlink
LEOCIRCULAR

关于 Starlink 2499

正在加载描述...

实时位置

正在加载3D地球...

即将过境

高度历史

Altitude vs Time

uPlot chart will show altitude changes over time

两行轨道根数

1 48377U 21038AA 26062.14949861 .00007203 00000-0 25498-3 0 9994
2 48377 53.1619 18.1794 0001357 91.8378 268.2778 15.30213053266229
Epoch: Mar 3, 2026 • Age: 26 hours

当前状态

高度 475.0 km
速度 7.63 km/s
星下点 11.89°N, 10.87°W
发射日期 May 4, 2021
运行时间 4.8 years
类型 internet

技术详情

分类 Payload
质量 260.00 kg
干质量 248.00 kg
总质量 260.00 kg
长度 0.20 m
直径 2.80 m
跨度 9.00 m
形状 Box + pan
制造商 SPXS
平台类型 Starlink
阶段状态 In Orbit
所有者/国家 SPXS/US

大型星座

Loading constellations...